Weather History for KSNC - March, 2014

Change the Weather History Date:

Friday, March 28, 2014

  Actual Average (KHVN) Record (KHVN)
Temperature  
Mean Temperature 42 °F -  
Max Temperature 50 °F 49 °F 77 °F (1991)
Min Temperature 33 °F 35 °F 19 °F (1982)
Degree Days  
Heating Degree Days 24    
Moisture  
Dew Point 38 °F    
Average Humidity 81    
Maximum Humidity 93    
Minimum Humidity 70    
Precipitation  
Precipitation 0.01 in - - ()
Sea Level Pressure  
Sea Level Pressure 30.10 in    
Wind  
Wind Speed 8 mph (SSW)    
Max Wind Speed 13 mph    
Max Gust Speed 23 mph    
Visibility 9 miles    
Events Rain    
Averages and records for this station are not official NWS values.
T = Trace of Precipitation, MM = Missing Value Source: NWS Daily Summary

Daily Weather History Graph

Daily Weather History Graph

Search for Another Location

Airport or City:

Trip Planner

Search our weather history database for the weather conditions in past years. The results will help you decide how hot, cold, wet, or windy it might be!

Date:

Astronomy

Mar. 28, 2014 Rise Set
Actual Time 6:39 AM EDT 7:10 PM EDT
Civil Twilight 6:12 AM EDT 7:38 PM EDT
Nautical Twilight 5:39 AM EDT 8:11 PM EDT
Astronomical Twilight 5:05 AM EDT 8:45 PM EDT
Moon 5:10 AM EDT (3/28) 5:02 PM EDT (3/28)
Length of Visible Light 13h 26m
Length of Day
12h 30m
Waning Crescent, 6% of the Moon is Illuminated
Mar 28
Waning Crescent
Mar 30
New
Apr 7
First Quarter
Apr 15
Full
Apr 22
Last Quarter

Hourly Weather History & Observations

Time (EDT) Temp. Windchill Dew Point Humidity Pressure Visibility Wind Dir Wind Speed Gust Speed Precip Events Conditions
12:15 AM 33.8 °F 28.6 °F 26.6 °F 75% 30.26 in 10.0 mi SSW 5.8 mph - N/A   Clear
12:35 AM 33.8 °F 27.0 °F 26.6 °F 75% 30.27 in 10.0 mi SW 8.1 mph - N/A   Clear
12:55 AM 33.8 °F 27.0 °F 26.6 °F 75% 30.26 in 10.0 mi SSW 8.1 mph - N/A   Mostly Cloudy
1:15 AM 35.6 °F 29.9 °F 26.6 °F 70% 30.26 in 10.0 mi SSW 6.9 mph - N/A   Mostly Cloudy
1:35 AM 33.8 °F 27.7 °F 26.6 °F 75% 30.25 in 10.0 mi SSW 6.9 mph - N/A   Clear
1:55 AM 33.8 °F 26.4 °F 26.6 °F 75% 30.24 in 10.0 mi SSW 9.2 mph - N/A   Mostly Cloudy
2:15 AM 35.6 °F 29.9 °F 26.6 °F 70% 30.23 in 10.0 mi South 6.9 mph - N/A   Mostly Cloudy
2:35 AM 35.6 °F 30.7 °F 28.4 °F 75% 30.23 in 10.0 mi SSW 5.8 mph - N/A   Partly Cloudy
2:55 AM 33.8 °F 28.6 °F 28.4 °F 81% 30.22 in 10.0 mi SSW 5.8 mph - N/A   Clear
3:15 AM 33.8 °F 28.6 °F 28.4 °F 81% 30.21 in 10.0 mi SSW 5.8 mph - N/A   Clear
3:35 AM 35.6 °F 30.7 °F 28.4 °F 75% 30.20 in 10.0 mi South 5.8 mph - N/A   Partly Cloudy
3:55 AM 35.6 °F 30.7 °F 28.4 °F 75% 30.19 in 10.0 mi SSW 5.8 mph - N/A   Scattered Clouds
4:15 AM 35.6 °F 29.9 °F 28.4 °F 75% 30.18 in 10.0 mi South 6.9 mph - N/A   Mostly Cloudy
4:35 AM 35.6 °F 29.9 °F 30.2 °F 81% 30.18 in 10.0 mi South 6.9 mph - N/A   Mostly Cloudy
4:55 AM 35.6 °F 29.9 °F 30.2 °F 81% 30.17 in 10.0 mi South 6.9 mph - N/A   Partly Cloudy
5:15 AM 35.6 °F 29.2 °F 32.0 °F 87% 30.16 in 10.0 mi South 8.1 mph - N/A   Clear
5:35 AM 35.6 °F 29.9 °F 32.0 °F 87% 30.16 in 10.0 mi South 6.9 mph - N/A   Clear
5:55 AM 35.6 °F 29.2 °F 32.0 °F 87% 30.16 in 10.0 mi South 8.1 mph - N/A   Scattered Clouds
6:15 AM 37.4 °F 31.4 °F 32.0 °F 81% 30.15 in 10.0 mi South 8.1 mph - N/A   Scattered Clouds
6:35 AM 37.4 °F 31.4 °F 32.0 °F 81% 30.15 in 10.0 mi South 8.1 mph - N/A   Partly Cloudy
6:55 AM 39.2 °F 34.2 °F 32.0 °F 75% 30.16 in 9.0 mi SSW 6.9 mph - N/A   Partly Cloudy
7:15 AM 39.2 °F 34.2 °F 32.0 °F 75% 30.16 in 9.0 mi South 6.9 mph - N/A   Scattered Clouds
7:35 AM 39.2 °F 35.0 °F 32.0 °F 75% 30.16 in 10.0 mi South 5.8 mph - N/A   Mostly Cloudy
7:55 AM 39.2 °F 34.2 °F 33.8 °F 81% 30.15 in 10.0 mi SSW 6.9 mph - N/A   Mostly Cloudy
8:15 AM 41.0 °F 37.1 °F 33.8 °F 76% 30.15 in 10.0 mi SSW 5.8 mph - N/A   Mostly Cloudy
8:35 AM 42.8 °F 38.0 °F 35.6 °F 76% 30.14 in 9.0 mi SSW 8.1 mph - N/A   Mostly Cloudy
8:55 AM 42.8 °F 38.0 °F 35.6 °F 76% 30.13 in 9.0 mi SSW 8.1 mph - N/A   Mostly Cloudy
9:15 AM 42.8 °F 38.6 °F 37.4 °F 81% 30.12 in 9.0 mi SSW 6.9 mph - N/A   Mostly Cloudy
9:35 AM 44.6 °F 39.7 °F 37.4 °F 76% 30.13 in 9.0 mi SSW 9.2 mph 16.1 mph N/A   Mostly Cloudy
9:55 AM 46.4 °F 41.5 °F 39.2 °F 76% 30.12 in 9.0 mi SSW 10.4 mph 18.4 mph N/A   Scattered Clouds
10:15 AM 46.4 °F 42.4 °F 39.2 °F 76% 30.12 in 10.0 mi SSW 8.1 mph - N/A   Mostly Cloudy
10:35 AM 46.4 °F 41.9 °F 39.2 °F 76% 30.12 in 9.0 mi SSW 9.2 mph 17.3 mph N/A   Scattered Clouds
10:55 AM 48.2 °F - 39.2 °F 71% 30.11 in 10.0 mi SW 11.5 mph 18.4 mph N/A   Partly Cloudy
11:15 AM 48.2 °F - 39.2 °F 71% 30.10 in 10.0 mi SW 9.2 mph 17.3 mph N/A   Scattered Clouds
11:35 AM 50.0 °F - 41.0 °F 71% 30.10 in 10.0 mi SW 11.5 mph 17.3 mph N/A   Mostly Cloudy
12:15 PM 50.0 °F - 41.0 °F 71% 30.07 in 9.0 mi SW 11.5 mph 23.0 mph N/A   Mostly Cloudy
12:35 PM 48.2 °F - 42.8 °F 82% 30.08 in 7.0 mi SSW 12.7 mph 16.1 mph N/A   Light Drizzle
12:55 PM 48.2 °F - 42.8 °F 82% 30.08 in 5.0 mi SW 10.4 mph 18.4 mph N/A   Light Drizzle
1:15 PM 46.4 °F 41.5 °F 42.8 °F 87% 30.07 in 4.0 mi SW 10.4 mph 16.1 mph N/A   Light Drizzle
1:35 PM 46.4 °F 41.9 °F 42.8 °F 87% 30.05 in 5.0 mi SSW 9.2 mph - N/A   Overcast
1:55 PM 46.4 °F 41.9 °F 42.8 °F 87% 30.04 in 7.0 mi South 9.2 mph - N/A   Overcast
2:15 PM 46.4 °F 42.4 °F 42.8 °F 87% 30.03 in 7.0 mi SSW 8.1 mph - N/A   Overcast
2:35 PM 46.4 °F 42.4 °F 42.8 °F 87% 30.02 in 8.0 mi SSW 8.1 mph - N/A   Overcast
2:55 PM 46.4 °F 41.9 °F 42.8 °F 87% 30.01 in 8.0 mi South 9.2 mph 16.1 mph N/A   Overcast
3:15 PM 48.2 °F - 42.8 °F 82% 30.00 in 8.0 mi SSW 9.2 mph - N/A   Mostly Cloudy
3:35 PM 48.2 °F - 44.6 °F 87% 29.98 in 9.0 mi SW 11.5 mph 16.1 mph N/A   Mostly Cloudy
3:55 PM 50.0 °F - 42.8 °F 76% 29.99 in 8.0 mi SW 11.5 mph 18.4 mph N/A   Mostly Cloudy
4:15 PM 50.0 °F - 42.8 °F 76% 29.99 in 8.0 mi SW 11.5 mph 18.4 mph N/A   Overcast
4:35 PM 50.0 °F - 42.8 °F 76% 30.00 in 8.0 mi SW 10.4 mph - N/A   Overcast
4:55 PM 50.0 °F - 42.8 °F 76% 30.00 in 9.0 mi SW 8.1 mph - N/A   Overcast
5:15 PM 50.0 °F - 44.6 °F 82% 30.00 in 8.0 mi SW 8.1 mph 16.1 mph N/A   Overcast
5:35 PM 48.2 °F - 44.6 °F 87% 30.01 in 2.5 mi SW 8.1 mph - N/A   Light Drizzle
5:55 PM 48.2 °F - 44.6 °F 87% 30.02 in 2.0 mi SW 8.1 mph - N/A Rain Light Rain
6:15 PM 48.2 °F - 46.4 °F 93% 30.02 in 1.2 mi SSW 6.9 mph - 0.01 in   Light Drizzle
6:35 PM 48.2 °F - 46.4 °F 93% 30.02 in 5.0 mi SW 9.2 mph - 0.01 in   Overcast
6:55 PM 48.2 °F - 44.6 °F 87% 30.02 in 7.0 mi SSW 6.9 mph - 0.01 in   Mostly Cloudy
7:15 PM 48.2 °F - 44.6 °F 87% 30.03 in 7.0 mi SW 6.9 mph - N/A   Mostly Cloudy
7:35 PM 48.2 °F - 44.6 °F 87% 30.02 in 9.0 mi SSW 5.8 mph - N/A   Mostly Cloudy
7:55 PM 48.2 °F - 44.6 °F 87% 30.03 in 9.0 mi SW 5.8 mph - N/A   Scattered Clouds
8:15 PM 48.2 °F - 44.6 °F 87% 30.03 in 9.0 mi SW 6.9 mph - N/A   Scattered Clouds
8:35 PM 48.2 °F - 44.6 °F 87% 30.04 in 10.0 mi WSW 8.1 mph - N/A   Partly Cloudy
8:55 PM 48.2 °F - 44.6 °F 87% 30.04 in 10.0 mi SW 4.6 mph - N/A   Partly Cloudy
9:15 PM 48.2 °F - 44.6 °F 87% 30.05 in 9.0 mi WSW 4.6 mph - N/A   Scattered Clouds
9:35 PM 48.2 °F - 44.6 °F 87% 30.04 in 10.0 mi SW 6.9 mph - N/A   Mostly Cloudy
9:55 PM 48.2 °F - 44.6 °F 87% 30.04 in 10.0 mi SSW 5.8 mph - N/A   Mostly Cloudy
10:15 PM 48.2 °F - 44.6 °F 87% 30.04 in 10.0 mi SW 8.1 mph - N/A   Mostly Cloudy
10:35 PM 48.2 °F - 44.6 °F 87% 30.04 in 8.0 mi SW 6.9 mph - N/A   Mostly Cloudy
10:55 PM 48.2 °F - 44.6 °F 87% 30.05 in 9.0 mi SW 8.1 mph - N/A   Mostly Cloudy
11:15 PM 48.2 °F - 44.6 °F 87% 30.06 in 9.0 mi WSW 8.1 mph - N/A   Mostly Cloudy
11:35 PM 46.4 °F 42.4 °F 44.6 °F 93% 30.05 in 5.0 mi WSW 8.1 mph - N/A Rain Light Rain
11:55 PM 46.4 °F 42.9 °F 44.6 °F 93% 30.06 in 8.0 mi WSW 6.9 mph - N/A   Mostly Cloudy